COSMOS 1275 DEB

Satellite information

Favourite Embed

Satellite Type and Status

DEBRISIN ORBIT

Key statistics

Satellite COSMOS 1275 DEB at a glance.

Uptime

16045

Days in orbit

Revolutions

≈ 14.2

Per day

Orbit

LEO

Low Earth Orbit

Inclination

83.1

Latest

Satellite identification and parameters

Extended collection of information and parameters for COSMOS 1275 DEB.

Object identification

Identified? True

Debris? True

Object name: COSMOS 1275 DEB

International designator: 1981-053UR

Object number (NORAD): 42225

Object ID (CCSDS): 42225

Country: COMMONWEALTH OF INDEPENDENT STATES (CIS)

Current information (Y/N): Y

RCS size: SMALL

Orbital parameters

Period: 101.707 minutes

Inclination: 83.1447 deg

SMA: 7217.635 km

Apoapsis: 863.574 km

Periapsis: 815.426 km

RAAN: 141.0563 deg

Eccentricy: 0.0033354

Argument of periapsis: 298.6703 deg

Mean anomaly: 61.1124 deg

Mean motion: 14.15827704 rev/day

Mean motion (dot): 0.0000273 rev/day2

B* drag term: 0.0013736 1/REarth

Two-line elements (TLE)

Creation date: May 8, 2025, 3:01 a.m.

Reference frame: TEME

Reference center: EARTH

Epoch: May 7, 2025, 7:49 a.m. UTC

TLE line 0: 0 COSMOS 1275 DEB

TLE line 1: 1 42225U 81053UR 25127.32625001 .00002730 00000-0 13736-2 0 9992

TLE line 2: 2 42225 83.1447 141.0563 0033354 298.6703 61.1124 14.15827704588620

Live tracking on map

Real-time ground track for satellite COSMOS 1275 DEB.

In-orbit conjunctions

A list of the most updated potential collisions computed for object COSMOS 1275 DEB.

Target Orbit TCA Probability of collision Miss distance Type
FENGYUN 1C DEB SSO 2024-11-16 03:45:23 0.0001283827 432.0 (m) DEBRIS
CZ-6A DEB SSO 2024-11-12 19:57:37 0.0004589867 98.0 (m) DEBRIS
FENGYUN 1C DEB SSO 2024-11-11 21:46:49 0.0002420788 548.0 (m) DEBRIS

Associated space launch

Navigation satellite providing location information for the Tsiklon-B navigation system

COSMOS 1275 DEB was lifted into orbit during the mission ‘Kosmos-3M | Parus 27’, on board a Kosmos-3M space rocket.

The launch took place on June 4, 1981, 3:41 p.m. from 132/2.

For more information about the launch, click the button.

Launch to space Kosmos-3M | Parus 27
Kosmos-3M | Parus 27

Agency: N/A

Status: Launch Successful

Launch date: June 4, 1981, 3:41 p.m. UTC

Rocket: Kosmos-3M

Launch pad: 132/2

Location: Plesetsk Cosmodrome, Russian Federation

...

Latest news about this satellite

There are no fresh news available about this satellite. Check back as we update our databases every day.


Newsletter sign-up

Weekly statistics, charts and insights to help you stay on top of the space industry.